Fergus Falls, MN

2:29 PM CST on November 22, 2019 (GMT -0600)
Fergus Falls Municipal-Mickelson

Weather History for KFFM - September, 2019

Change the Weather History Date:

Monday, September 23, 2019

  Actual Average Record
Temperature  
Mean Temperature 62 °F -  
Max Temperature 75 °F 62 °F 89 °F (2007)
Min Temperature 48 °F 41 °F 28 °F (1990)
Degree Days  
Heating Degree Days 4    
Growing Degree Days 12 (Base 50)    
Moisture  
Dew Point 49 °F    
Average Humidity 68    
Maximum Humidity 93    
Minimum Humidity 34    
Precipitation  
Precipitation 0.00 in - - ()
Sea Level Pressure  
Sea Level Pressure 29.91 in    
Wind  
Wind Speed 4 mph ()    
Max Wind Speed 13 mph    
Max Gust Speed 18 mph    
Visibility 10.0 miles    
Events      
Averages and records for this station are not official NWS values.
T = Trace of Precipitation, MM = Missing Value Source: Averaged Metar Reports

Daily Weather History Graph

Daily Weather History Graph

Search for Another Location

Airport or City:

Astronomy

Sep. 23, 2019 Rise Set
Actual Time 7:12 AM CDT 7:20 PM CDT
Civil Twilight 6:42 AM CDT 7:50 PM CDT
Nautical Twilight 6:07 AM CDT 8:25 PM CDT
Astronomical Twilight 5:31 AM CDT 9:01 PM CDT
Moon 12:34 AM CDT (9/23) 4:36 PM CDT (9/23)
Length of Visible Light 13h 07m
Length of Day
12h 08m
Waning Crescent, 33% of the Moon is Illuminated
Sep 23
Waning Crescent
Sep 28
New
Oct 5
First Quarter
Oct 13
Full
Oct 21
Last Quarter

Hourly Weather History & Observations

Time (CDT) Temp. Dew Point Humidity Pressure Visibility Wind Dir Wind Speed Gust Speed Precip Events Conditions
12:18 AM 55.4 °F 50.0 °F 82% 29.90 in 10.0 mi SSW 3.5 mph - N/A   Mostly Cloudy
12:36 AM 55.4 °F 50.0 °F 82% 29.90 in 10.0 mi South 4.6 mph - N/A   Mostly Cloudy
12:56 AM 55.4 °F 50.0 °F 82% 29.90 in 10.0 mi South 4.6 mph - N/A   Scattered Clouds
1:15 AM 55.4 °F 48.2 °F 77% 29.90 in 10.0 mi SSW 5.8 mph - N/A   Clear
1:35 AM 53.6 °F 48.2 °F 82% 29.90 in 10.0 mi SW 4.6 mph - N/A   Clear
1:39 AM 53.6 °F 48.2 °F 82% 29.90 in 10.0 mi SSW 4.6 mph - N/A   Clear
1:57 AM 51.8 °F 48.2 °F 88% 29.90 in 10.0 mi SSW 5.8 mph - N/A   Clear
2:16 AM 51.8 °F 48.2 °F 88% 29.91 in 10.0 mi SW 3.5 mph - N/A   Clear
2:35 AM 51.8 °F 48.2 °F 88% 29.91 in 10.0 mi SW 4.6 mph - N/A   Clear
2:36 AM 51.8 °F 48.2 °F 88% 29.91 in 10.0 mi SW 4.6 mph - N/A   Clear
2:55 AM 51.8 °F 48.2 °F 88% 29.91 in 10.0 mi SW 4.6 mph - N/A   Clear
2:56 AM 51.8 °F 48.2 °F 88% 29.91 in 10.0 mi SSW 4.6 mph - N/A   Clear
3:19 AM 51.8 °F 48.2 °F 88% 29.91 in 10.0 mi SW 3.5 mph - N/A   Clear
3:56 AM 51.8 °F 48.2 °F 88% 29.92 in 10.0 mi Calm Calm - N/A   Clear
4:15 AM 51.8 °F 48.2 °F 88% 29.92 in 10.0 mi Calm Calm - N/A   Clear
4:16 AM 51.8 °F 48.2 °F 88% 29.92 in 10.0 mi Calm Calm - N/A   Clear
4:35 AM 51.8 °F 48.2 °F 88% 29.92 in 10.0 mi SSW 3.5 mph - N/A   Clear
4:39 AM 51.8 °F 48.2 °F 88% 29.92 in 10.0 mi SSW 3.5 mph - N/A   Clear
4:57 AM 51.8 °F 46.4 °F 82% 29.93 in 10.0 mi Calm Calm - N/A   Clear
5:15 AM 51.8 °F 46.4 °F 82% 29.93 in 10.0 mi Calm Calm - N/A   Clear
5:16 AM 51.8 °F 46.4 °F 82% 29.93 in 10.0 mi Calm Calm - N/A   Clear
5:35 AM 51.8 °F 46.4 °F 82% 29.93 in 10.0 mi Calm Calm - N/A   Clear
5:36 AM 51.8 °F 46.4 °F 82% 29.93 in 10.0 mi Calm Calm - N/A   Clear
5:55 AM 51.8 °F 46.4 °F 82% 29.93 in 10.0 mi Calm Calm - N/A   Clear
6:17 AM 51.8 °F 46.4 °F 82% 29.94 in 10.0 mi Calm Calm - N/A   Clear
6:36 AM 48.2 °F 46.4 °F 93% 29.94 in 10.0 mi SW 4.6 mph - N/A   Clear
6:55 AM 48.2 °F 46.4 °F 93% 29.94 in 10.0 mi SSW 4.6 mph - N/A   Clear
6:56 AM 48.2 °F 46.4 °F 93% 29.94 in 10.0 mi SSW 4.6 mph - N/A   Clear
7:15 AM 50.0 °F 46.4 °F 87% 29.95 in 10.0 mi Calm Calm - N/A   Clear
7:19 AM 50.0 °F 46.4 °F 87% 29.95 in 10.0 mi Calm Calm - N/A   Clear
7:37 AM 48.2 °F 46.4 °F 93% 29.95 in 10.0 mi Calm Calm - N/A   Clear
7:55 AM 51.8 °F 48.2 °F 88% 29.95 in 10.0 mi SSE 3.5 mph - N/A   Clear
8:15 AM 51.8 °F 48.2 °F 88% 29.95 in 10.0 mi Calm Calm - N/A   Clear
8:16 AM 51.8 °F 48.2 °F 88% 29.95 in 10.0 mi Calm Calm - N/A   Clear
8:35 AM 53.6 °F 50.0 °F 88% 29.96 in 10.0 mi Calm Calm - N/A   Clear
8:36 AM 53.6 °F 50.0 °F 88% 29.96 in 10.0 mi Calm Calm - N/A   Clear
9:17 AM 55.4 °F 50.0 °F 82% 29.96 in 10.0 mi South 4.6 mph - N/A   Clear
9:36 AM 57.2 °F 51.8 °F 82% 29.96 in 10.0 mi WSW 3.5 mph - N/A   Clear
9:55 AM 59.0 °F 51.8 °F 77% 29.97 in 10.0 mi SW 3.5 mph - N/A   Clear
9:56 AM 59.0 °F 51.8 °F 77% 29.97 in 10.0 mi SW 5.8 mph - N/A   Clear
10:15 AM 60.8 °F 51.8 °F 72% 29.97 in 10.0 mi West 4.6 mph - N/A   Clear
10:20 AM 60.8 °F 51.8 °F 72% 29.97 in 10.0 mi WSW 5.8 mph - N/A   Clear
10:38 AM 60.8 °F 51.8 °F 72% 29.97 in 10.0 mi West 5.8 mph - N/A   Clear
10:55 AM 62.6 °F 51.8 °F 68% 29.97 in 10.0 mi WSW 4.6 mph - N/A   Clear
11:15 AM 64.4 °F 53.6 °F 68% 29.97 in 10.0 mi SSW 4.6 mph - N/A   Clear
11:16 AM 64.4 °F 53.6 °F 68% 29.97 in 10.0 mi SSW 3.5 mph - N/A   Clear
11:35 AM 66.2 °F 53.6 °F 64% 29.97 in 10.0 mi Calm Calm - N/A   Clear
11:58 AM 68.0 °F 53.6 °F 60% 29.96 in 10.0 mi SW 5.8 mph - N/A   Clear
12:17 PM 69.8 °F 53.6 °F 56% 29.96 in 10.0 mi SW 5.8 mph - N/A   Clear
12:36 PM 71.6 °F 53.6 °F 53% 29.95 in 10.0 mi South 3.5 mph - N/A   Clear
12:55 PM 71.6 °F 48.2 °F 43% 29.94 in 10.0 mi SW 6.9 mph - N/A   Clear
12:56 PM 71.6 °F 46.4 °F 41% 29.94 in 10.0 mi SW 8.1 mph - N/A   Clear
1:15 PM 71.6 °F 48.2 °F 43% 29.94 in 10.0 mi SSW 6.9 mph - N/A   Clear
1:20 PM 73.4 °F 46.4 °F 38% 29.94 in 10.0 mi SSW 8.1 mph - N/A   Clear
1:37 PM 73.4 °F 48.2 °F 41% 29.93 in 10.0 mi SW 9.2 mph - N/A   Clear
1:55 PM 73.4 °F 46.4 °F 38% 29.93 in 10.0 mi WSW 10.4 mph - N/A   Clear
2:15 PM 73.4 °F 44.6 °F 36% 29.92 in 10.0 mi West 12.7 mph - N/A   Clear
2:16 PM 73.4 °F 44.6 °F 36% 29.92 in 10.0 mi West 11.5 mph - N/A   Clear
2:35 PM 73.4 °F 46.4 °F 38% 29.92 in 10.0 mi West 10.4 mph - N/A   Clear
2:36 PM 73.4 °F 46.4 °F 38% 29.92 in 10.0 mi West 8.1 mph - N/A   Clear
2:58 PM 75.2 °F 46.4 °F 36% 29.91 in 10.0 mi West 12.7 mph 18.4 mph N/A   Clear
3:17 PM 75.2 °F 46.4 °F 36% 29.91 in 10.0 mi West 12.7 mph 16.1 mph N/A   Clear
3:36 PM 75.2 °F 44.6 °F 34% 29.90 in 10.0 mi West 9.2 mph 17.3 mph N/A   Clear
3:55 PM 75.2 °F 44.6 °F 34% 29.90 in 10.0 mi West 8.1 mph - N/A   Clear
3:56 PM 75.2 °F 44.6 °F 34% 29.90 in 10.0 mi West 8.1 mph - N/A   Clear
4:15 PM 75.2 °F 46.4 °F 36% 29.89 in 10.0 mi SW 6.9 mph - N/A   Clear
4:20 PM 75.2 °F 46.4 °F 36% 29.89 in 10.0 mi West 8.1 mph - N/A   Clear
4:37 PM 75.2 °F 46.4 °F 36% 29.89 in 10.0 mi WSW 6.9 mph - N/A   Clear
4:56 PM 73.4 °F 46.4 °F 38% 29.89 in 10.0 mi West 8.1 mph - N/A   Clear
5:15 PM 73.4 °F 46.4 °F 38% 29.88 in 10.0 mi WSW 8.1 mph - N/A   Clear
5:16 PM 73.4 °F 46.4 °F 38% 29.88 in 10.0 mi WSW 8.1 mph - N/A   Clear
5:35 PM 73.4 °F 46.4 °F 38% 29.88 in 10.0 mi SW 9.2 mph - N/A   Clear
6:16 PM 71.6 °F 48.2 °F 43% 29.87 in 10.0 mi SW 6.9 mph - N/A   Clear
6:35 PM 69.8 °F 48.2 °F 46% 29.87 in 10.0 mi SW 6.9 mph - N/A   Clear
6:36 PM 69.8 °F 48.2 °F 46% 29.87 in 10.0 mi SW 6.9 mph - N/A   Clear
6:55 PM 68.0 °F 50.0 °F 52% 29.87 in 10.0 mi SW 6.9 mph - N/A   Clear
6:56 PM 68.0 °F 50.0 °F 52% 29.87 in 10.0 mi SW 6.9 mph - N/A   Clear
7:19 PM 64.4 °F 50.0 °F 59% 29.87 in 10.0 mi SW 5.8 mph - N/A   Clear
7:36 PM 64.4 °F 51.8 °F 64% 29.87 in 10.0 mi SSW 6.9 mph - N/A   Clear
7:56 PM 62.6 °F 51.8 °F 68% 29.88 in 10.0 mi SSW 5.8 mph - N/A   Clear
8:15 PM 62.6 °F 50.0 °F 63% 29.88 in 10.0 mi SSW 8.1 mph - N/A   Clear
8:16 PM 62.6 °F 50.0 °F 63% 29.88 in 10.0 mi SSW 8.1 mph - N/A   Clear
8:35 PM 60.8 °F 50.0 °F 68% 29.88 in 10.0 mi SSW 6.9 mph - N/A   Clear
8:57 PM 60.8 °F 50.0 °F 68% 29.88 in 10.0 mi South 4.6 mph - N/A   Clear
9:15 PM 59.0 °F 50.0 °F 72% 29.87 in 10.0 mi South 5.8 mph - N/A   Clear
9:35 PM 59.0 °F 50.0 °F 72% 29.87 in 10.0 mi South 5.8 mph - N/A   Clear
9:36 PM 59.0 °F 50.0 °F 72% 29.87 in 10.0 mi South 5.8 mph - N/A   Clear
9:55 PM 59.0 °F 50.0 °F 72% 29.87 in 10.0 mi SSE 5.8 mph - N/A   Clear
9:56 PM 59.0 °F 51.8 °F 77% 29.87 in 10.0 mi SSE 5.8 mph - N/A   Clear
10:18 PM 57.2 °F 50.0 °F 77% 29.87 in 10.0 mi SSE 6.9 mph - N/A   Clear
10:37 PM 57.2 °F 50.0 °F 77% 29.87 in 10.0 mi SSE 6.9 mph - N/A   Clear
11:15 PM 57.2 °F 50.0 °F 77% 29.86 in 10.0 mi SSE 6.9 mph - N/A   Clear
11:16 PM 57.2 °F 50.0 °F 77% 29.86 in 10.0 mi SSE 6.9 mph - N/A   Clear
11:35 PM 57.2 °F 50.0 °F 77% 29.85 in 10.0 mi South 8.1 mph - N/A   Clear
11:40 PM 57.2 °F 50.0 °F 77% 29.85 in 10.0 mi South 6.9 mph - N/A   Clear
11:57 PM 55.4 °F 48.2 °F 77% 29.85 in 10.0 mi SSE 6.9 mph - N/A   Clear